Theta_e
340 338 333 331 335 336 335 334 336 333 325 332 330 332 334 332 330 332 333 333 336 334 332 333 333 333 332 332 332 331 330 329 329 329 329 328 326 326 327 325 327 326 326
341 338 335 331 336 333 338 334 336 332 330 332 331 331 333 328 332 332 329 330 333 331 333 333 332 331 330 329 326 327 327 326 326 327 326 327 326 326 325 327 324 326 326
342 338 333 334 335 333 334 332 331 328 333 333 333 332 332 331 333 336 336 336 333 332 331 331 330 331 326 326 327 326 326 327 327 327 327 326 324 325 325 324 325 325 324
342 339 332 335 333 332 329 324 323 334 334 333 334 333 331 329 334 335 335 333 332 330 331 330 330 329 327 325 325 323 324 327 327 327 327 327 326 326 326 325 324 325 325
342 339 336 335 332 331 326 322 325 335 333 334 335 333 330 328 331 333 334 332 329 330 328 325 325 323 325 323 319 322 325 325 327 327 326 326 326 325 326 324 324 324 323
342 341 337 333 334 330 327 334 334 334 333 335 334 331 329 330 330 330 332 331 330 330 328 323 318 317 317 318 319 321 326 326 326 327 326 325 325 326 324 322 324 322 322
342 342 337 333 336 331 329 332 334 334 335 335 334 329 331 330 330 330 331 329 329 328 327 319 318 312 313 313 316 322 326 325 327 326 325 325 325 325 323 325 324 324 324
342 342 336 333 335 332 329 330 333 334 334 335 332 333 332 331 330 330 329 330 329 329 327 323 319 314 313 313 315 319 324 326 326 325 326 324 324 324 323 322 321 320 322
342 342 338 334 335 333 328 330 333 334 334 336 332 333 333 329 329 328 326 326 326 326 325 322 319 315 314 314 316 321 325 325 325 324 324 323 324 323 321 323 321 321 321
341 342 339 336 335 332 329 327 333 334 335 335 334 333 332 329 329 326 331 330 328 326 325 321 316 315 315 316 317 319 322 324 324 322 324 323 325 324 320 318 313 314 314
339 339 341 337 337 334 333 331 334 334 336 334 331 333 331 330 329 328 331 332 329 327 326 324 317 315 315 316 316 321 324 324 324 322 321 324 324 319 317 313 312 311 311
339 339 340 338 337 337 336 334 334 335 335 333 330 326 331 331 329 329 329 328 326 326 324 321 319 317 318 315 316 322 323 324 324 323 316 318 318 318 312 310 310 310 310
341 341 341 338 337 337 338 335 334 334 335 334 331 330 332 331 329 328 329 328 326 327 324 324 319 321 323 322 320 323 323 323 323 318 313 317 318 313 310 310 310 310 310
340 342 340 338 336 336 338 335 334 334 334 336 333 332 331 330 329 329 328 327 326 327 325 322 324 324 323 323 323 322 322 322 322 322 313 314 314 312 309 309 309 309 309
340 342 340 338 336 335 334 335 335 336 336 336 333 332 330 329 328 327 326 328 327 326 325 324 324 323 322 322 322 321 321 321 321 322 315 310 309 310 308 308 308 308 308
341 340 338 337 337 336 334 335 335 334 335 334 334 331 330 330 328 328 327 326 326 325 325 324 323 322 322 322 321 321 321 321 320 321 320 310 309 308 308 308 307 307 307
340 338 337 336 337 336 333 335 334 337 334 334 333 331 330 329 327 327 327 326 325 325 325 324 324 323 323 322 322 321 321 321 319 319 318 321 311 309 308 308 307 307 306
336 337 336 339 334 332 334 334 334 335 335 335 332 329 330 329 328 325 327 325 324 325 324 324 324 323 323 322 321 321 320 317 319 319 317 314 314 316 309 308 307 307 306
336 339 336 338 334 334 332 334 332 331 335 331 330 328 328 327 327 326 325 324 322 323 323 323 323 323 322 322 321 321 320 320 318 316 313 313 311 310 309 308 308 308 308
333 336 335 337 335 333 331 333 331 332 334 331 329 328 327 326 325 325 325 324 322 322 323 323 323 322 322 321 320 319 318 313 314 314 315 316 311 309 309 308 308 308 308
334 333 334 337 334 331 331 331 332 332 331 330 329 328 326 324 322 322 323 323 322 322 322 322 322 319 317 320 319 318 316 313 312 312 311 310 311 309 308 307 307 307 307
333 334 333 335 333 331 330 331 332 332 330 332 329 328 325 323 322 319 320 322 321 321 322 321 321 319 319 314 318 319 318 317 313 309 309 309 309 309 308 309 309 310 310
332 333 332 334 332 330 330 333 332 331 330 330 329 328 323 322 322 318 316 316 316 319 321 320 318 317 318 315 315 318 316 314 313 313 309 308 309 309 309 309 308 309 309
331 331 330 333 330 331 332 331 332 331 330 328 328 325 322 321 320 317 315 316 317 316 318 317 317 316 319 318 316 315 314 314 315 314 315 311 309 309 310 311 311 312 313
330 330 330 333 330 334 331 331 331 330 330 328 327 323 322 320 319 317 317 318 320 319 320 320 319 318 317 319 319 316 314 313 312 312 314 314 314 313 314 315 315 316 317
330 330 329 331 331 334 332 331 330 330 329 328 325 324 324 321 319 318 318 319 319 321 321 321 319 318 318 317 318 317 314 313 312 312 312 311 313 315 316 315 316 316 317
Wind_Speed
20 26 25 23 21 18 17 16 15 13 14 15 15 15 16 15 16 19 19 20 20 17 18 23 22 20 21 23 25 25 25 25 27 26 24 23 21 23 23 21 22 22 22
22 27 27 24 22 21 19 18 16 15 17 15 16 16 16 15 18 18 19 19 17 16 18 20 19 17 20 22 24 26 25 26 26 24 23 24 22 22 21 21 19 23 21
27 28 28 26 22 21 19 18 18 18 18 18 16 17 15 16 18 20 21 19 17 17 18 18 18 20 21 22 23 24 26 25 25 22 23 20 20 20 21 20 21 20 18
27 28 29 27 24 21 18 19 20 20 19 18 17 16 15 16 18 18 17 15 13 15 19 18 19 19 20 20 20 22 25 25 23 21 17 20 19 19 19 18 18 19 20
26 28 27 28 26 22 21 21 23 21 20 19 18 15 15 16 16 15 13 13 12 18 17 15 17 17 19 18 20 21 26 26 21 17 16 18 18 18 18 17 19 17 18
26 27 28 29 26 24 24 22 22 21 21 20 15 13 15 16 16 15 12 11 12 17 17 16 17 17 18 18 21 27 28 23 18 17 19 17 18 16 16 17 18 16 17
29 29 29 29 26 25 25 23 22 22 22 19 14 12 15 16 14 14 13 13 15 16 17 15 16 16 18 18 22 26 26 20 15 15 17 18 16 16 15 17 15 17 17
30 31 33 30 27 25 25 24 22 23 22 19 15 15 13 15 14 15 13 15 14 16 16 15 15 17 18 18 21 22 26 20 15 17 15 15 17 15 15 14 15 15 15
32 31 33 32 28 25 25 23 23 22 22 19 16 16 15 13 15 13 13 13 12 12 12 12 13 16 18 19 20 22 25 19 13 14 16 16 14 14 14 14 14 14 14
33 32 31 32 31 28 26 24 23 23 22 20 18 18 15 14 14 14 14 13 10 9 10 12 13 16 16 17 19 20 21 17 13 9 15 15 13 13 14 13 14 14 14
33 34 31 32 29 28 28 25 23 22 23 19 18 19 19 16 16 15 14 15 10 10 9 10 13 15 16 16 17 18 18 11 11 9 14 13 12 12 12 13 13 14 13
38 35 34 31 29 27 27 28 26 25 24 20 18 18 17 15 16 16 14 11 10 9 7 7 11 14 13 14 17 16 10 10 10 7 12 12 11 10 11 11 11 11 10
43 39 36 34 33 32 28 30 29 28 25 20 18 18 17 18 18 17 19 15 14 12 9 11 13 11 8 8 10 7 9 9 7 6 11 11 10 9 9 9 9 8 8
41 41 37 36 34 32 30 31 30 29 27 23 21 20 19 17 18 19 16 16 15 11 9 9 8 8 10 8 7 7 7 7 7 3 7 10 9 8 8 7 7 5 4
42 45 42 39 36 33 32 31 29 28 26 25 22 19 19 17 19 21 19 15 14 14 12 10 9 9 9 8 7 7 7 7 6 5 4 6 8 7 6 5 4 2 1
43 46 44 41 38 35 36 33 30 29 26 23 21 19 17 17 19 17 18 15 15 15 12 10 10 9 9 8 8 7 7 6 5 6 4 3 3 3 3 3 2 2 2
46 47 46 41 41 40 36 33 30 28 27 24 22 21 18 19 17 21 19 17 15 14 13 11 11 11 8 7 6 8 7 6 7 6 6 5 5 5 5 5 5 5 6
47 46 46 44 42 37 36 36 34 32 27 25 22 21 21 19 18 19 20 17 16 16 15 13 12 10 9 7 6 6 5 6 6 6 7 7 7 7 8 9 9 9 10
44 46 48 44 41 39 37 36 34 31 24 21 20 21 22 21 20 16 17 16 18 16 14 13 12 10 9 8 7 7 6 5 6 7 8 9 10 10 11 13 11 13 13
43 44 46 44 43 42 39 37 34 31 24 22 21 21 22 21 21 19 18 18 18 17 15 14 13 11 8 8 8 8 7 8 9 9 8 10 11 12 13 13 14 14 14
43 44 46 46 45 42 39 37 33 32 25 24 23 21 22 21 22 20 19 19 19 18 16 14 12 13 12 10 7 7 8 9 10 11 11 12 13 13 14 14 14 15 15
44 46 43 45 43 41 39 35 32 33 29 25 23 22 22 22 22 22 21 20 20 18 16 16 15 13 10 13 6 6 3 7 8 9 10 10 10 12 11 11 13 13 12
46 46 43 42 43 40 37 34 34 31 29 24 23 23 23 22 23 22 20 19 20 19 19 18 18 14 13 12 12 6 4 4 3 6 6 6 5 6 8 10 10 10 11
43 43 46 43 43 39 38 38 36 36 36 34 29 26 24 24 22 22 22 20 20 20 19 18 17 16 12 12 13 14 13 8 1 3 6 6 9 9 10 10 9 8 8
42 44 44 43 44 42 39 38 37 36 35 34 29 27 25 24 24 24 23 22 21 20 19 18 18 18 17 14 13 11 13 14 13 13 9 7 11 11 7 7 7 7 7
44 43 45 42 44 42 41 39 38 38 33 32 31 28 27 26 26 26 25 24 23 21 21 21 20 19 19 18 17 16 15 14 13 14 13 12 12 10 10 9 9 9 10
Wind_Direction
174 178 173 168 163 169 167 166 163 157 150 143 135 129 123 115 112 115 111 109 111 107 101 100 106 109 108 105 103 105 105 104 100 97 98 99 97 101 96 97 93 95 94
168 177 172 167 169 169 166 164 166 159 150 147 139 133 127 118 117 113 120 124 117 112 108 111 112 118 111 107 103 104 101 98 94 94 93 90 91 93 98 92 96 93 93
163 175 170 167 172 173 171 171 171 157 156 150 143 138 128 121 123 122 123 121 120 122 114 116 117 110 105 107 107 104 103 100 97 91 88 91 93 90 91 93 89 90 93
161 171 170 170 170 173 173 171 162 157 155 151 146 137 131 134 136 134 132 136 135 129 122 120 115 110 108 114 108 105 103 92 85 79 94 92 92 93 95 96 95 95 91
164 166 175 171 169 169 166 160 157 163 160 155 151 144 137 139 141 142 147 140 144 129 129 125 118 111 110 109 107 101 97 96 95 92 91 91 90 90 89 86 95 92 92
165 163 179 173 171 168 166 164 164 161 161 158 153 150 145 150 152 160 154 145 150 130 130 128 121 119 115 111 105 98 89 82 83 87 87 90 88 85 90 86 86 90 90
164 175 178 174 175 171 170 169 169 165 164 160 155 150 149 151 152 155 154 153 140 135 129 125 124 122 120 116 111 107 102 100 103 93 95 91 94 88 88 86 86 85 85
166 180 177 176 176 175 173 170 172 169 167 164 155 149 153 152 148 149 150 145 141 135 132 131 129 126 127 122 119 111 103 97 95 98 96 94 89 89 88 90 89 86 90
177 175 175 176 175 179 177 174 173 173 169 165 155 157 156 156 153 150 143 140 139 145 143 138 136 135 134 128 124 115 109 109 102 96 98 96 100 95 95 90 88 86 86
179 172 171 174 176 178 180 181 176 173 173 164 154 156 157 151 153 148 144 141 142 142 143 141 143 140 136 130 125 112 108 100 98 93 102 105 101 100 100 99 96 94 88
176 172 173 174 172 175 179 178 179 173 173 171 162 154 151 153 153 149 155 157 160 144 147 149 144 142 138 133 125 108 95 107 109 111 115 104 103 103 104 103 104 98 93
175 176 179 173 171 173 177 176 178 174 177 174 171 159 146 150 156 160 166 172 174 165 159 151 144 139 136 140 132 99 109 115 108 126 124 115 111 112 111 106 105 104 98
174 175 175 176 173 178 174 175 179 178 173 176 171 151 158 173 167 167 165 168 167 167 159 160 147 119 147 150 123 129 131 125 131 137 134 127 122 121 118 117 113 107 100
174 176 172 174 178 177 174 178 179 176 173 168 165 164 161 179 175 161 165 173 170 165 161 155 134 165 157 158 153 145 135 127 132 160 156 143 139 135 131 129 120 112 97
177 180 177 173 177 177 176 177 179 174 179 173 170 166 167 171 184 170 170 174 170 176 155 161 164 161 155 156 159 155 156 142 142 161 211 176 160 156 152 143 131 123 96
183 186 183 180 177 175 181 177 176 185 179 177 172 171 171 175 186 159 179 174 184 175 168 167 163 156 163 155 160 165 169 164 170 165 248 216 214 200 193 175 194 239 267
183 191 186 180 185 186 187 174 180 175 178 176 172 170 175 176 191 171 171 173 185 162 174 169 164 164 162 166 170 173 184 191 199 196 198 247 244 245 251 253 259 269 280
185 186 189 184 190 187 186 184 185 179 179 175 178 178 175 178 180 189 174 172 182 182 178 175 179 173 172 167 176 186 184 205 205 212 233 233 239 259 263 265 273 280 284
191 185 190 187 191 185 190 189 194 190 177 178 178 182 181 182 178 189 179 180 189 183 180 178 179 180 178 183 183 203 201 218 222 234 244 254 254 260 267 277 280 281 285
188 190 189 190 192 191 188 193 196 187 178 180 181 182 185 187 185 177 180 189 183 187 178 182 182 182 188 201 201 214 234 237 237 245 250 257 264 270 271 274 281 281 282
188 191 188 189 195 195 193 195 196 191 183 187 181 185 189 192 192 188 182 194 186 190 190 188 189 201 206 201 209 239 245 255 257 261 261 261 263 271 273 276 279 283 289
189 192 189 196 194 195 196 196 197 195 194 188 182 184 192 196 199 199 193 195 192 190 193 196 200 204 207 211 194 211 235 243 275 254 255 263 270 270 277 279 282 287 292
190 192 191 193 196 197 195 193 200 198 198 187 193 191 195 201 202 202 199 199 198 198 198 203 214 206 207 214 207 191 214 225 228 278 257 269 250 287 290 290 289 294 292
193 194 195 198 197 195 196 200 201 203 200 203 197 203 201 204 204 206 202 202 205 206 210 214 217 216 202 227 224 227 222 206 231 272 298 293 259 289 295 296 295 293 296
193 196 197 194 199 195 199 205 205 209 209 204 204 202 205 206 207 208 206 207 208 211 213 218 218 219 220 216 242 242 239 243 245 240 260 260 282 299 284 287 290 292 297
196 198 199 196 203 202 202 205 210 214 207 207 205 203 207 208 209 211 211 214 216 218 220 225 230 229 232 235 233 240 246 243 250 246 249 260 268 266 269 278 279 279 283